Home   Weather   Abu Dhabi   Past weeks
Flag for United Arab Emirates

Past Weather in Abu Dhabi, Abu Dhabi, United Arab Emirates — Yesterday and Last 2 Weeks

Now
84 °F

Clear.


Feels Like: 92 °F
Forecast: 92 / 82 °F
Wind: 5 mph from North

Location: Abu Dhabi Bateen Airport

Current Time: Oct 20, 2019 at 2:38:04 am

Latest Report: Oct 20, 2019 at 2:00 am


Visibility: 10 mi

Pressure: 29.89 "Hg

Humidity: 74%

Dew Point: 75 °F

Location of Abu DhabiLocation

Past Weather in Abu Dhabi — Graph

°F

Abu Dhabi Temperature Yesterday

Maximum temperature yesterday: 95 °F (at 12:00 pm)
Minimum temperature yesterday: 79 °F (at 7:00 am)
Average temperature yesterday: 87 °F

High & Low Weather Summary for the Past Weeks

 TemperatureHumidityPressure
High102 °F (Oct 5, 1:00 pm)100% (Oct 15, 8:00 am)29.98 "Hg (Oct 15, 8:00 am)
Low79 °F (Oct 17, 6:00 am)16% (Oct 17, 2:00 pm)29.65 "Hg (Oct 5, 3:00 am)
Average90 °F58%29.85 "Hg
* Reported Oct 5 1:00 am — Oct 20 1:00 am, Abu Dhabi. Weather by CustomWeather, © 2019

Note: Actual official high and low records may vary slightly from our data, if they occured in-between our weather recording intervals... More about our weather records

Advertising

Abu Dhabi Weather History for the Previous 24 Hours

Scroll right to see more
 ConditionsComfort  
Time TempWeatherWind HumidityBarometerVisibility
1:00 am
Sun, Oct 20
84 °FPassing clouds.5 mph70%29.92 "HgN/A
12:00 am86 °FPassing clouds.5 mph66%29.92 "HgN/A
11:00 pm
Sat, Oct 19
86 °FPassing clouds.6 mph70%29.92 "HgN/A
10:00 pm88 °FClear.7 mph62%29.92 "Hg10 mi
9:00 pm88 °FClear.8 mph59%29.92 "Hg10 mi
8:00 pm88 °FClear.8 mph62%29.92 "Hg10 mi
7:00 pm88 °FClear.6 mph62%29.89 "Hg10 mi
6:00 pm90 °FClear.9 mph63%29.89 "Hg5 mi
5:00 pm90 °FClear.10 mph55%29.86 "Hg5 mi
4:00 pm91 °FClear.10 mph56%29.86 "Hg5 mi
3:00 pm91 °FClear.12 mph67%29.86 "Hg4 mi
2:00 pm93 °FClear.12 mph59%29.86 "Hg5 mi
1:00 pm93 °FClear.9 mph59%29.89 "Hg5 mi
12:00 pm95 °FSunny.5 mph47%29.92 "Hg10 mi
11:00 am93 °FClear.3 mph49%29.95 "Hg6 mi
10:00 am90 °FClear.5 mph63%29.95 "Hg4 mi
9:00 am86 °FClear.6 mph75%29.95 "Hg4 mi
8:00 am82 °FHaze.5 mph79%29.95 "Hg3 mi
7:00 am79 °FHaze.7 mph89%29.92 "Hg3 mi
6:00 am81 °FHaze.2 mph89%29.89 "Hg3 mi
5:00 am81 °FClear.1 mph89%29.89 "Hg4 mi
4:00 am82 °FClear.2 mph84%29.86 "Hg4 mi
3:00 am82 °FClear.2 mph84%29.86 "Hg4 mi
2:00 am84 °FClear.3 mph79%29.86 "Hg4 mi
Weather by CustomWeather, © 2019

See weather overview